User: anonymous   Login
Location: Karaa?a�
(36.7158°N, 30.4165°E)
Time: 13:26:12
(UTC+00:00)
Language:

Cosmos 1726 Rocket - Orbit

View from above orbital plane
View from above orbital plane
View from above satellite
View from above satellite

Ground track
Ground track

The orbit data is extracted from the following two-line orbital elements,

1 16496U 86006B   20192.09354578  .00000046  00000-0  26772-5 0  9990
2 16496  82.5244  40.8910 0018702 340.9492 134.7776 14.84143623863305
Epoch (UTC): 10 July 2020 02:14:42
Eccentricity: 0.0018702
inclination: 82.5244°
perigee height: 603 km
apogee height: 629 km
right ascension of ascending node: 40.8910°
argument of perigee: 340.9492°
revolutions per day: 14.84143623
mean anomaly at epoch: 134.7776°
orbit number at epoch: 86330

The dashed part of the orbit path shows where the satellite is in the earth's shadow,  

DLR